User: anonymous   Login
Location: Wawayanda State Park
(41.1833°N, 74.4333°W)
Time: 22:31:01
(UTC-05:00)
Language:

RESURS DK-1 - Orbit

View from above orbital plane
View from above orbital plane
View from above satellite
View from above satellite

Ground track
Ground track

The orbit data is extracted from the following two-line orbital elements,

1 29228U 06021A   15060.77694627  .00000855  00000-0  73889-4 0  9999
2 29228 069.9375 070.0365 0006371 216.4301 266.9787 15.01277811482225
Epoch (UTC): 01 March 2015 18:38:48
Eccentricity: 0.0006371
inclination: 69.9375°
perigee height: 558 km
apogee height: 567 km
right ascension of ascending node: 70.0365°
argument of perigee: 216.4301°
revolutions per day: 15.01277811
mean anomaly at epoch: 266.9787°
orbit number at epoch: 48222

The dashed part of the orbit path shows where the satellite is in the earth's shadow,  

DLR